Find Starlink 5003

NORAD ID: 53905 Int'l Des: 2022-119 Owner: SPXS Country: US Constellation: starlink operational
LEOCIRCULAR

現在のビュー

3D地球を読み込み中...

About Starlink 5003

Starlink 5003 (NORAD 53905) is a starlink constellation satellite (v1.5) launched Sep 24, 2022 by SPXS of US. It operates in LEO, CIRCULAR orbit with a mass of 305.00 kg.

Starlink 5003について

説明を読み込み中...

次回通過

Passes for default location (London). Set your location on the main map for personalized predictions.

高度履歴

Loading altitude history...

軌道要素

1 53905U 22119V 26170.38080535 .00000277 00000-0 35469-4 0 9992
2 53905 53.1594 217.7228 0001113 85.0826 275.0292 15.08831599207178
Epoch: Jun 19, 2026 • Age: 19 hours

現在のステータス

高度 545.6 km
速度 7.60 km/s
衛星直下点 53.31°N, 33.07°W
打ち上げ日 Sep 24, 2022
運用期間 3.7 years
タイプ internet

技術仕様

分類 Payload
質量 305.00 kg
乾燥質量 290.00 kg
総質量 305.00 kg
長さ 0.20 m
直径 2.80 m
スパン 9.00 m
形状 Box + pan
製造者 SPXS
バスタイプ Starlink
フェーズステータス In Orbit
所有者/国 SPXS/US

Most Searched